Miscellaneous Local Product
Issued by NWS Hastings, NE

Home | Current Version | Previous Version | Text Only | Print | Product List | Glossary Off
Versions: 1 2 3 4 5 6 7 8 9 10 11 12 13 14 15 16 17 18 19 20 21 22 23 24 25 26 27 28 29 30 31 32 33 34 35 36 37 38 39 40 41 42 43 44 45 46 47 48 49 50

000
AXUS43 KGID 291002
MISGRI

GID CWA HOURLY WEATHER ROUNDUP
NATIONAL WEATHER SERVICE HASTINGS NE
500 AM CDT SUN MAR 29 2015

NOTE: "FAIR" INDICATES FEW OR NO CLOUDS BELOW 12,000 FEET WITH NO
SIGNIFICANT WEATHER AND/OR OBSTRUCTIONS TO VISIBILITY.

...SOUTH CENTRAL NEBRASKA...

CITY           SKY/WX    TMP DP  RH WIND       PRES   REMARKS
GRAND ISLAND   CLEAR     44  36  73 NW6       29.87R
HASTINGS       PTCLDY    45  37  73 NW6       29.85R
KEARNEY        PTCLDY    54  37  54 N21       29.88R
ORD            PTCLDY    42  34  73 N9        29.86R
YORK           PTCLDY    43  39  87 NW10      29.88R
AURORA         PTCLDY    44  38  79 N7        29.87R
LEXINGTON      PTCLDY    57  35  42 N16       29.91R
HOLDREGE       PTCLDY    58  36  43 N22G33    29.87R
HEBRON         MOCLDY    45  38  77 S12       29.81F

...NEBRASKA PANHANDLE...

CITY           SKY/WX    TMP DP  RH WIND       PRES   REMARKS
CHADRON        CLEAR     49  24  37 NW16G22   30.08R
ALLIANCE       CLEAR     48  18  30 NW18G30   30.02S
SCOTTSBLUFF    CLEAR     47  17  30 NW25G33   30.07S
SIDNEY         CLEAR     44  20  38 NW18      30.10R

...WESTERN AND NORTH CENTRAL NEBRASKA...

CITY           SKY/WX    TMP DP  RH WIND       PRES   REMARKS
VALENTINE      CLEAR     43  32  65 W10       29.88S
AINSWORTH      CLEAR     44  32  63 NW6       29.88R
ONEILL         PTCLDY    50  38  64 NW10      29.83R
BROKEN BOW     MOCLDY    53  35  50 NW9       29.89S
IMPERIAL       PTCLDY    50  27  40 N13       30.03R
NORTH PLATTE   PTCLDY    43  31  62 NW7       29.96R
MCCOOK         MOCLDY    60  31  33 N26G38    29.93R

...EASTERN NEBRASKA...

CITY           SKY/WX    TMP DP  RH WIND       PRES   REMARKS
NORFOLK        PTCLDY    44  36  73 VRB5      29.82F
SO SIOUX CITY  MOCLDY    44  33  65 SW12G23   29.79F
TEKAMAH        CLOUDY    42  33  70 S10G21    29.87R
COLUMBUS       PTCLDY    37  30  75 SE3       29.86F
ALBION         PTCLDY    37  32  81 E3        29.84S
OMAHA EPPLEY   CLOUDY    43  34  70 S6        29.91R
OFFUTT AFB     CLOUDY    42  33  72 SW3       29.90R
MILLARD        CLOUDY    43  34  70 SW6       29.91R
LINCOLN        MOCLDY    44  36  73 SW5       29.89R
NEBRASKA CITY  CLOUDY    41  32  71 S17       29.85F
BEATRICE       CLOUDY    44  36  74 SW12      29.87R
FALLS CITY     CLOUDY    41  34  76 S21       29.86F

...NORTHERN KANSAS...

CITY           SKY/WX    TMP DP  RH WIND       PRES   REMARKS
GOODLAND       PTCLDY    57  37  47 N26G35    29.97R
HILL CITY      PTCLDY    57  42  57 W7        29.86F
NORTON         SUNNY     57  28  33 N20G28    29.88R
PHILLIPSBURG   CLEAR     57  45  62 W9        29.86R
SMITH CENTER   CLEAR     46  39  76 S6        29.84R
BELOIT         CLEAR     48  39  71 E7        29.86S
HAYS           MOCLDY    59  43  55 SW20      29.86R
RUSSELL        MOCLDY    58  44  60 NW21      29.89R
CONCORDIA      CLOUDY    47  41  80 NW6       29.89R
SALINA         CLEAR     53  41  63 S17G26    29.81F
TOPEKA         PTCLDY    42  35  76 SE10      29.92F



USA.gov is the U.S. government's official web portal to all federal, state and local government web resources and services.